[[{"header":{"parameterUnit":"m.s-1","parameterCategory":2,"la1":30.2991,"la2":30.254,"lo1":-89.0895,"lo2":-89.0444,"dy":0.0017,"dx":0.0017,"nx":28,"ny":28,"refTime":"2024-05-22T21:00:00:Z","depth":"0","parameterNumber":2,"parameterNumberName":"U-component_of_CURRENTS"},"data":[0,0,0,0,0,0,0,0,0,0,0,0,0,0,0,0,0,0,0,0,0,0,0,0,0,0,0,0,0,0,0,0,0,0,0,0,0,0,0,0,0,0,0,0,0,0,0,0,0,0,0,0,0,0,0,0,0,0,0.3232,0.3233,0,0.3263,0.3263,0.3264,0.325,0.325,0.3249,0.3249,0.3244,0.3245,0.3245,0,0,0,0,0,0,0,0,0,0,0,0,0,0.3183,0.3184,0.3232,0.3233,0.3233,0.3263,0.3263,0.3264,0.325,0.325,0.3249,0.3248,0.3244,0.3245,0.3245,0,0,0,0,0,0,0,0,0,0,0,0,0,0.3207,0.3184,0.3232,0.3232,0.3232,0.3263,0.3263,0.3264,0.3251,0.325,0.3249,0.3248,0.3244,0.3245,0.3245,0.3267,0,0,0.3247,0.3248,0,0,0,0,0,0,0,0,0.3205,0.3208,0.3231,0.3232,0.3232,0.3254,0.3245,0.3264,0.3251,0.3242,0.3249,0.3248,0.3246,0.3247,0.3252,0.3266,0.3266,0.3247,0.3248,0.3248,0.3248,0,0,0,0,0,0,0,0.3204,0.3207,0.3243,0.3232,0.3233,0.3238,0.324,0.3248,0.3246,0.3242,0.3242,0.3249,0.3246,0.3252,0.3252,0.3266,0.3247,0.3248,0.3248,0.3248,0.3338,0.334,0,0,0,0,0,0,0.3204,0.3205,0.3242,0.3244,0.3219,0.3239,0.3241,0.3246,0.3247,0.3247,0.3249,0.3248,0.3251,0.3251,0.3252,0.3309,0.3248,0.3249,0.3249,0.3336,0.3339,0.3341,0,0,0,0,0,0,0.3202,0.3207,0.324,0.3227,0.3232,0.3241,0.3247,0.3247,0.3257,0.3253,0.3252,0.3259,0.325,0.3251,0.3276,0.3308,0.3249,0.3249,0.3334,0.3337,0.334,0.3404,0,0,0,0,0,0,0.3201,0.3206,0.321,0.3227,0.3232,0.3267,0.3248,0.3249,0.3263,0.3262,0.3261,0.3259,0.325,0.3275,0.3276,0.3307,0.325,0.3331,0.3335,0.3339,0.3399,0.3409,0.3417,0,0,0,0,0,0.3199,0.3209,0.321,0.3215,0.3238,0.3268,0.3272,0.3274,0.3265,0.3277,0.3282,0.326,0.33,0.3277,0.3278,0.331,0.3329,0.3334,0.3338,0.3395,0.3407,0.3417,0,0,0,0,0,0,0.3188,0.3209,0.3211,0.3225,0.3249,0.3266,0.3279,0.3282,0.3296,0.3293,0.3283,0.3283,0.332,0.3309,0.3285,0.335,0.3312,0.3317,0.3355,0.3366,0.3375,0.3375,0.325,0,0,0,0,0,0.319,0.3202,0.3226,0.3239,0.3252,0.3268,0.328,0.3286,0.3301,0.3306,0.3307,0.3316,0.3341,0.3347,0.3361,0.3393,0.341,0.3417,0.3425,0.3433,0.3436,0.351,0.3526,0.3355,0.3355,0.3355,0,0,0.3189,0.3203,0.3209,0.3238,0.3255,0.3281,0.3273,0.3299,0.3321,0.3304,0.3332,0.3347,0.3358,0.3398,0.3413,0.339,0.3491,0.3438,0.3444,0.3444,0.3517,0.3533,0.3548,0.3358,0.3358,0.3357,0,0,0.32,0.321,0.3226,0.3249,0.3281,0.3295,0.3306,0.3333,0.3345,0.3381,0.3381,0.3417,0.3439,0.346,0.3473,0.354,0.3539,0.3546,0.3586,0.3658,0.3673,0.3686,0.3731,0.3748,0.3546,0.3546,0.3546,0,0.32,0.322,0.3237,0.3263,0.3285,0.3303,0.3333,0.3353,0.3384,0.3417,0.3397,0.3476,0.3473,0.3542,0.3559,0.3559,0.3593,0.3542,0.367,0.3683,0.3695,0.3739,0.3756,0.355,0.3549,0.3549,0.3549,0,0.3221,0.3242,0.3257,0.3293,0.3324,0.3352,0.3388,0.3424,0.3443,0.3472,0.3546,0.3556,0.3608,0.3614,0.3601,0.3692,0.3686,0.3676,0.3641,0.3717,0.3757,0.3774,0.3555,0.3554,0.3553,0.3552,0,0,0.3208,0.326,0.3265,0.3289,0.3342,0.3369,0.3429,0.3496,0.3546,0.3582,0.366,0.3694,0.3713,0.3728,0.3729,0.3774,0.3877,0.3759,0.3761,0.3799,0.4033,0.4003,0.4018,0.3898,0.3902,0.3904,0.4027,0,0.3219,0.3263,0.3294,0.3344,0.3372,0.3425,0.3479,0.3547,0.3602,0.3681,0.3728,0.379,0.3753,0.3785,0.3832,0.3877,0.3925,0.3844,0.3957,0.396,0.3921,0.4038,0.3891,0.3986,0.4043,0.4046,0.4048,0,0.3224,0.3257,0.3303,0.3376,0.3396,0.343,0.3538,0.3588,0.3711,0.3764,0.3852,0.389,0.3978,0.3925,0.4047,0.4003,0.4022,0.4039,0.4045,0.4004,0.3962,0.3921,0.4015,0.3917,0.4074,0.4072,0.407,0,0.3194,0.3262,0.3296,0.3318,0.3405,0.3449,0.35,0.3616,0.3692,0.382,0.3912,0.4005,0.4078,0.4129,0.4167,0.4125,0.4295,0.4245,0.4233,0.423,0.4119,0.4101,0.4125,0.433,0.4329,0.4329,0.4329,0,0.3186,0.3212,0.3281,0.3297,0.3363,0.3428,0.3519,0.3595,0.3736,0.3851,0.3944,0.4061,0.4137,0.4241,0.4238,0.4308,0.4364,0.4269,0.4277,0.4137,0.412,0.4037,0.3991,0.4333,0.4332,0.4332,0.4331,0,0.3147,0.3185,0.3229,0.3314,0.3345,0.3389,0.3527,0.3603,0.3738,0.3901,0.3957,0.4147,0.4282,0.4345,0.4443,0.4413,0.4342,0.4457,0.4274,0.4259,0.4127,0.4089,0.3965,0.3845,0.4471,0.4471,0.4471,0,0.313,0.3146,0.3227,0.3265,0.3301,0.3383,0.3451,0.3585,0.3677,0.3951,0.403,0.4233,0.4359,0.4508,0.4492,0.4518,0.436,0.4378,0.4262,0.4132,0.4097,0.3905,0.3798,0.414,0.4137,0.4135,0.4134,0,0.3118,0.3141,0.3192,0.3255,0.3314,0.338,0.348,0.3553,0.3734,0.3878,0.4076,0.4206,0.4396,0.4378,0.4432,0.4417,0.4171,0.4337,0.4259,0.3899,0.3635,0.3519,0.4034,0.4115,0.4117,0.4118,0.4119,0.412,0.3125,0.3152,0.3216,0.326,0.3319,0.3352,0.3363,0.3487,0.3604,0.3762,0.3979,0.4092,0.4214,0.428,0.4239,0.4101,0.4066,0.397,0.3955,0.3787,0.3601,0.4071,0.4126,0.4128,0.413,0.4131,0.4132,0,0.3141,0.3171,0.3221,0.3254,0.3258,0.3301,0.3367,0.3347,0.3406,0.3595,0.3727,0.3842,0.3851,0.3897,0.3876,0.3746,0.3523,0.3639,0.3334,0.3263,0.375,0.3666,0.3554,0.3554,0.3554,0.3554,0.3555,0.3555,0.3166,0.3197,0.3193,0.3173,0.3179,0.3126,0.3116,0.3101,0.3174,0.3225,0.328,0.3402,0.362,0.3687,0.3567,0.347,0.3189,0.3043,0.3028,0.339,0.3418,0.3444,0.3355,0.318,0.3179,0.2375,0.2369,0.2365]},{"header":{"parameterUnit":"m.s-1","parameterCategory":2,"la1":30.2991,"la2":30.254,"lo1":-89.0895,"lo2":-89.0444,"dy":0.0017,"dx":0.0017,"nx":28,"ny":28,"refTime":"2024-05-22T21:00:00:Z","depth":"0","parameterNumber":3,"parameterNumberName":"V-component_of_CURRENTS"},"data":[0,0,0,0,0,0,0,0,0,0,0,0,0,0,0,0,0,0,0,0,0,0,0,0,0,0,0,0,0,0,0,0,0,0,0,0,0,0,0,0,0,0,0,0,0,0,0,0,0,0,0,0,0,0,0,0,0,0,0.026,0.0259,0,0.0201,0.0201,0.02,0.0156,0.0156,0.0155,0.0155,0.0071,0.0069,0.0067,0,0,0,0,0,0,0,0,0,0,0,0,0,0.0278,0.0278,0.026,0.0259,0.0258,0.0202,0.0201,0.02,0.0156,0.0156,0.0155,0.0155,0.0071,0.0069,0.0067,0,0,0,0,0,0,0,0,0,0,0,0,0,0.0248,0.0278,0.026,0.0231,0.0228,0.0202,0.0201,0.0199,0.0156,0.0156,0.0155,0.0155,0.0072,0.0069,0.0066,0.0056,0,0,0.0057,0.0056,0,0,0,0,0,0,0,0,0.025,0.0248,0.0236,0.0233,0.0229,0.0187,0.0176,0.0151,0.0156,0.0182,0.0155,0.0155,0.0109,0.0103,0.0091,0.0052,0.0048,0.0057,0.0055,0.0054,0.0053,0,0,0,0,0,0,0,0.0252,0.0249,0.0235,0.0235,0.0231,0.0202,0.0198,0.0171,0.0146,0.0179,0.0176,0.0173,0.0106,0.0094,0.0088,0.0047,0.0057,0.0054,0.0053,0.0051,0.0002,0.0003,0,0,0,0,0,0,0.0266,0.0252,0.0237,0.0233,0.0241,0.0202,0.0198,0.02,0.0147,0.0139,0.0173,0.0171,0.0099,0.0092,0.0085,0.009,0.0054,0.0051,0.0049,0.0002,0.0003,0.0003,0,0,0,0,0,0,0.0267,0.0266,0.0239,0.0242,0.0237,0.0203,0.0205,0.0199,0.019,0.0143,0.0134,0.0172,0.0098,0.0089,0.0069,0.0086,0.005,0.0047,0.0001,0.0002,0.0003,0.0086,0,0,0,0,0,0,0.0268,0.0266,0.0272,0.0243,0.0237,0.0236,0.0206,0.0198,0.0189,0.0186,0.0139,0.0131,0.0097,0.0074,0.0067,0.0081,0.0045,0.0001,0.0002,0.0003,0.0083,0.009,0.0096,0,0,0,0,0,0.0269,0.0283,0.0272,0.027,0.0246,0.0237,0.0231,0.0204,0.019,0.0193,0.0161,0.0132,0.0074,0.0072,0.0063,0.0077,0.0,0.0001,0.0002,0.008,0.0089,0.0096,0,0,0,0,0,0,0.0292,0.028,0.0267,0.0276,0.0262,0.023,0.023,0.0212,0.0188,0.0185,0.0138,0.0128,0.0114,0.0084,0.0083,0.0065,0.0033,0.0032,0.0095,0.0103,0.0109,0.0135,0.0042,0,0,0,0,0,0.0301,0.0309,0.0289,0.0295,0.0292,0.0262,0.0254,0.0238,0.0214,0.0203,0.0171,0.0137,0.0111,0.0099,0.0068,0.0061,0.0031,0.0063,0.007,0.0075,0.009,0.0056,0.0061,0.0007,0.0007,0.0007,0,0,0.0311,0.0305,0.0309,0.0301,0.0285,0.0295,0.0256,0.0253,0.0261,0.0198,0.0196,0.0156,0.0113,0.0103,0.0095,0.0082,0.0074,0.0077,0.0082,0.0094,0.0058,0.0063,0.0068,0.0008,0.0007,0.0007,0,0,0.0343,0.0332,0.0352,0.0346,0.0335,0.032,0.0325,0.03,0.029,0.0281,0.0239,0.0213,0.0172,0.0148,0.013,0.0154,0.0107,0.0141,0.0199,0.0166,0.017,0.0174,0.0144,0.0144,0.0148,0.0148,0.0148,0,0.0355,0.0377,0.0355,0.0373,0.0377,0.0339,0.0365,0.035,0.0322,0.0325,0.0292,0.0241,0.0196,0.0196,0.0198,0.017,0.0143,0.0175,0.0175,0.0178,0.018,0.0149,0.0148,0.0152,0.0152,0.0151,0.0151,0,0.0404,0.0419,0.043,0.0443,0.0447,0.0459,0.0444,0.0444,0.0422,0.0406,0.0395,0.0331,0.0305,0.0282,0.0244,0.0245,0.0218,0.0186,0.016,0.0191,0.0155,0.0153,0.0158,0.0157,0.0156,0.0155,0,0,0.0437,0.0462,0.0464,0.0492,0.0486,0.0503,0.0517,0.0528,0.0558,0.0507,0.0538,0.0467,0.043,0.0407,0.0354,0.0322,0.0301,0.0266,0.0263,0.0245,0.0231,0.0212,0.0206,0.0268,0.0268,0.0268,0.02,0,0.0481,0.0539,0.0534,0.0592,0.0625,0.0604,0.0632,0.0637,0.0624,0.0642,0.0576,0.0579,0.048,0.0478,0.0423,0.0343,0.0298,0.0322,0.0196,0.0193,0.0179,0.0205,0.0226,0.0168,0.0198,0.0197,0.0197,0,0.0531,0.0567,0.0635,0.0689,0.0703,0.0735,0.0785,0.0805,0.0809,0.0802,0.0775,0.0725,0.0677,0.0588,0.045,0.047,0.0356,0.0279,0.0274,0.0228,0.017,0.014,0.0162,-0.0031,0.0192,0.0193,0.0193,0,0.0582,0.0637,0.0702,0.0717,0.077,0.0807,0.0838,0.0859,0.0913,0.0916,0.0964,0.0862,0.0855,0.0692,0.0509,0.0484,0.0358,0.0301,0.0173,0.017,0.0151,0.0147,-0.0019,0.0197,0.0197,0.0197,0.0198,0,0.0636,0.0685,0.0739,0.0777,0.088,0.0885,0.0991,0.1006,0.1061,0.1168,0.106,0.1124,0.0883,0.0778,0.057,0.0375,0.0395,0.0195,0.0157,0.018,0.018,-0.0021,-0.0123,0.0195,0.0195,0.0196,0.0196,0,0.0687,0.0711,0.0798,0.0873,0.0911,0.0989,0.1113,0.1195,0.123,0.1368,0.1389,0.1331,0.1197,0.0937,0.0691,0.049,0.0177,0.0199,0.0244,0.0212,-0.0089,-0.0186,-0.0381,-0.0451,0.0057,0.0056,0.0055,0,0.0719,0.0769,0.0881,0.0958,0.1002,0.1119,0.1216,0.1277,0.1384,0.1518,0.1607,0.1526,0.1504,0.112,0.0727,0.0361,0.0162,0.0148,0.0095,-0.0091,-0.0229,-0.0305,-0.0355,0.0097,0.0097,0.0097,0.0097,0,0.0795,0.0832,0.0914,0.1065,0.1183,0.132,0.1463,0.1574,0.1687,0.1816,0.1962,0.196,0.1611,0.1247,0.073,0.0476,0.0032,0.0133,-0.0073,-0.0215,-0.0295,-0.0383,0.0123,0.0095,0.0095,0.0095,0.0095,0.0095,0.0861,0.0936,0.1049,0.1193,0.1332,0.151,0.1637,0.1812,0.201,0.2218,0.2203,0.2236,0.1722,0.1022,0.0651,0.0001,-0.0002,-0.0192,-0.0295,-0.0356,-0.0424,0.0083,0.0017,0.0017,0.0016,0.0016,0.0016,0,0.0949,0.1038,0.1173,0.1348,0.1502,0.1561,0.18,0.1945,0.2198,0.2374,0.2488,0.224,0.1616,0.0976,0.0098,-0.0348,-0.0496,-0.0587,-0.07,-0.073,-0.0291,-0.029,-0.0409,-0.0409,-0.0408,-0.0408,-0.0408,-0.0408,0.1007,0.1142,0.1204,0.1458,0.1586,0.1798,0.1936,0.2171,0.2338,0.255,0.2562,0.2512,0.2023,0.0498,-0.0538,-0.0771,-0.1047,-0.1124,-0.1267,-0.0989,-0.096,-0.0933,-0.0958,-0.1215,-0.1216,-0.1641,-0.1646,-0.1649]}],[{"header":{"parameterUnit":"m.s-1","parameterCategory":2,"la1":30.2991,"la2":30.254,"lo1":-89.0895,"lo2":-89.0444,"dy":0.0017,"dx":0.0017,"nx":28,"ny":28,"refTime":"2024-05-22T21:00:00:Z","depth":"2","parameterNumber":2,"parameterNumberName":"U-component_of_CURRENTS"},"data":[0,0,0,0,0,0,0,0,0,0,0,0,0,0,0,0,0,0,0,0,0,0,0,0,0,0,0,0,0,0,0,0,0,0,0,0,0,0,0,0,0,0,0,0,0,0,0,0,0,0,0,0,0,0,0,0,0,0,0.2899,0.2899,0,0.2931,0.2931,0.2931,0.2932,0.2932,0.2931,0.2931,0.2945,0.2946,0.2946,0,0,0,0,0,0,0,0,0,0,0,0,0,0.2852,0.2852,0.2899,0.2899,0.29,0.2931,0.2931,0.2931,0.2932,0.2932,0.2931,0.2931,0.2945,0.2946,0.2946,0,0,0,0,0,0,0,0,0,0,0,0,0,0.2875,0.2852,0.2899,0.2905,0.2906,0.2931,0.2931,0.2931,0.2932,0.2932,0.2931,0.2931,0.2945,0.2946,0.2946,0.2959,0,0,0.2949,0.295,0,0,0,0,0,0,0,0,0.2874,0.2876,0.2904,0.2905,0.2906,0.2928,0.2919,0.294,0.2932,0.292,0.2931,0.2931,0.2939,0.2941,0.2945,0.296,0.296,0.2949,0.295,0.295,0.295,0,0,0,0,0,0,0,0.2872,0.2875,0.291,0.2905,0.2906,0.2911,0.2914,0.2923,0.293,0.2921,0.2922,0.2928,0.294,0.2944,0.2945,0.296,0.2949,0.295,0.2951,0.2951,0.3041,0.3043,0,0,0,0,0,0,0.2871,0.2874,0.2909,0.2911,0.2891,0.2912,0.2915,0.292,0.293,0.2932,0.2929,0.2928,0.2943,0.2944,0.2946,0.3008,0.295,0.2951,0.2951,0.3039,0.3042,0.3044,0,0,0,0,0,0,0.287,0.2874,0.2907,0.2894,0.2899,0.2914,0.2919,0.2921,0.2937,0.2936,0.2937,0.2944,0.2943,0.2945,0.2972,0.3007,0.2951,0.2952,0.3037,0.304,0.3043,0.3103,0,0,0,0,0,0,0.2869,0.2874,0.2881,0.2894,0.29,0.2932,0.292,0.2922,0.2942,0.2942,0.2949,0.295,0.2943,0.2971,0.2973,0.3007,0.2953,0.3035,0.3038,0.3042,0.3099,0.3108,0.3115,0,0,0,0,0,0.2867,0.2876,0.2881,0.2885,0.2908,0.2933,0.2937,0.2944,0.2943,0.2956,0.2965,0.295,0.2995,0.2973,0.2975,0.301,0.3033,0.3037,0.3041,0.3095,0.3106,0.3115,0,0,0,0,0,0,0.2857,0.2878,0.2883,0.2897,0.292,0.2934,0.2948,0.2954,0.2972,0.2975,0.2969,0.2971,0.3011,0.3004,0.298,0.3049,0.3014,0.3018,0.3054,0.3064,0.3072,0.3074,0.2954,0,0,0,0,0,0.286,0.2873,0.2895,0.2909,0.2922,0.2938,0.2951,0.296,0.2976,0.2984,0.2991,0.3005,0.303,0.304,0.3055,0.3088,0.3101,0.3115,0.3123,0.313,0.3134,0.3199,0.3214,0.3057,0.3057,0.3057,0,0,0.286,0.2874,0.2881,0.2909,0.2925,0.2949,0.2945,0.2972,0.2995,0.2983,0.3017,0.3034,0.3046,0.3087,0.3104,0.3084,0.3182,0.3135,0.3141,0.3142,0.3205,0.322,0.3234,0.306,0.306,0.3059,0,0,0.2868,0.2882,0.2898,0.2919,0.2951,0.2965,0.2977,0.3004,0.302,0.3058,0.3062,0.3101,0.3127,0.3148,0.3161,0.3225,0.3225,0.3234,0.3274,0.3338,0.3351,0.3363,0.34,0.3414,0.3236,0.3236,0.3236,0,0.2871,0.2889,0.2908,0.2931,0.2953,0.2974,0.3002,0.3023,0.3056,0.309,0.3077,0.3158,0.3159,0.3225,0.3243,0.3243,0.3273,0.3233,0.3349,0.3361,0.3372,0.3407,0.3422,0.3239,0.3239,0.3239,0.3238,0,0.2886,0.2909,0.2923,0.2957,0.2987,0.3014,0.3049,0.3088,0.3113,0.3142,0.3219,0.3233,0.3286,0.3295,0.3284,0.337,0.3364,0.3354,0.3322,0.3392,0.3423,0.3438,0.3244,0.3243,0.3242,0.3241,0,0,0.2871,0.2923,0.2928,0.295,0.3005,0.3027,0.3087,0.3151,0.3201,0.3244,0.3318,0.3359,0.3384,0.34,0.3405,0.3446,0.3539,0.3434,0.3435,0.3466,0.3675,0.3625,0.3636,0.3558,0.3561,0.3564,0.3665,0,0.2879,0.2918,0.295,0.2996,0.3021,0.3076,0.3127,0.3193,0.3253,0.3329,0.3379,0.3442,0.3419,0.3454,0.35,0.3538,0.3582,0.3512,0.3606,0.3608,0.3553,0.3653,0.3357,0.3419,0.3679,0.3682,0.3684,0,0.2879,0.2909,0.2952,0.302,0.3038,0.3073,0.3178,0.3229,0.3347,0.3401,0.3493,0.3533,0.3619,0.3577,0.3692,0.3654,0.3671,0.3684,0.3688,0.363,0.3587,0.3392,0.3436,0.3708,0.3706,0.3704,0.3703,0,0.2844,0.2908,0.2941,0.2962,0.3043,0.3089,0.3143,0.3257,0.3325,0.3457,0.3536,0.3634,0.3704,0.3755,0.3794,0.376,0.3905,0.3862,0.383,0.3825,0.3584,0.3553,0.3938,0.3938,0.3937,0.3937,0.3937,0,0.2831,0.2856,0.2926,0.2941,0.2999,0.3069,0.3155,0.3234,0.3366,0.3463,0.3568,0.3661,0.3756,0.3849,0.3852,0.3904,0.3965,0.3861,0.3864,0.3596,0.3567,0.3818,0.3803,0.3941,0.394,0.3939,0.3939,0,0.2786,0.2827,0.2867,0.295,0.298,0.3024,0.3153,0.3218,0.3355,0.3494,0.3546,0.372,0.3847,0.3924,0.4017,0.3987,0.4024,0.4015,0.3687,0.3649,0.388,0.3867,0.3999,0.3998,0.3998,0.3997,0.3997,0,0.2765,0.2779,0.2857,0.2888,0.2927,0.3005,0.3061,0.3195,0.3274,0.3518,0.3576,0.3766,0.3867,0.4002,0.3986,0.4013,0.4053,0.3734,0.361,0.3905,0.3894,0.3881,0.3869,0.3308,0.3302,0.3297,0.3293,0,0.2732,0.2758,0.2795,0.2852,0.2904,0.2961,0.3055,0.3103,0.3277,0.3399,0.3556,0.3662,0.3832,0.3738,0.3799,0.3759,0.3709,0.3638,0.4054,0.3347,0.3264,0.325,0.3258,0.325,0.3254,0.3257,0.3259,0.3261,0.2708,0.2719,0.2767,0.2812,0.2864,0.2891,0.2892,0.2991,0.3079,0.3204,0.3396,0.3458,0.3521,0.3475,0.3374,0.33,0.3548,0.3362,0.3372,0.3388,0.3299,0.3221,0.318,0.3184,0.3187,0.319,0.3193,0,0.2673,0.2686,0.2726,0.2746,0.2738,0.2819,0.2863,0.2824,0.2843,0.3001,0.3099,0.2922,0.2897,0.2955,0.2789,0.2795,0.2713,0.2665,0.252,0.2569,0.2611,0.2475,0.2141,0.2137,0.2133,0.213,0,0,0.2656,0.2655,0.266,0.261,0.2626,0.2577,0.2567,0.2527,0.2574,0.2546,0.2565,0.2802,0.2917,0.2503,0.2446,0.2263,0.2387,0.2176,0.3033,0.2915,0.2951,0.3045,0.2898,0,0,0,0,0]},{"header":{"parameterUnit":"m.s-1","parameterCategory":2,"la1":30.2991,"la2":30.254,"lo1":-89.0895,"lo2":-89.0444,"dy":0.0017,"dx":0.0017,"nx":28,"ny":28,"refTime":"2024-05-22T21:00:00:Z","depth":"2","parameterNumber":3,"parameterNumberName":"V-component_of_CURRENTS"},"data":[0,0,0,0,0,0,0,0,0,0,0,0,0,0,0,0,0,0,0,0,0,0,0,0,0,0,0,0,0,0,0,0,0,0,0,0,0,0,0,0,0,0,0,0,0,0,0,0,0,0,0,0,0,0,0,0,0,0,0.0126,0.0125,0,0.0074,0.0074,0.0073,0.0035,0.0035,0.0034,0.0034,-0.004,-0.0042,-0.0043,0,0,0,0,0,0,0,0,0,0,0,0,0,0.0141,0.0141,0.0126,0.0125,0.0125,0.0075,0.0074,0.0073,0.0035,0.0035,0.0034,0.0034,-0.0039,-0.0041,-0.0044,0,0,0,0,0,0,0,0,0,0,0,0,0,0.0115,0.0141,0.0126,0.0101,0.0098,0.0075,0.0074,0.0073,0.0035,0.0035,0.0034,0.0034,-0.0039,-0.0041,-0.0044,-0.0054,0,0,-0.0052,-0.0053,0,0,0,0,0,0,0,0,0.0117,0.0114,0.0105,0.0102,0.0099,0.0062,0.0052,0.003,0.0035,0.0057,0.0034,0.0034,-0.0007,-0.0012,-0.0023,-0.0057,-0.0061,-0.0052,-0.0054,-0.0055,-0.0056,0,0,0,0,0,0,0,0.0119,0.0116,0.0104,0.0104,0.0101,0.0075,0.0071,0.0047,0.0026,0.0055,0.0053,0.0049,-0.0009,-0.002,-0.0025,-0.0062,-0.0052,-0.0054,-0.0056,-0.0057,-0.0098,-0.0098,0,0,0,0,0,0,0.0131,0.0118,0.0106,0.0103,0.0109,0.0075,0.0071,0.0073,0.0027,0.002,0.005,0.0048,-0.0015,-0.0022,-0.0028,-0.0021,-0.0055,-0.0057,-0.0059,-0.0099,-0.0098,-0.0098,0,0,0,0,0,0,0.0131,0.013,0.0108,0.011,0.0105,0.0076,0.0078,0.0072,0.0066,0.0023,0.0016,0.005,-0.0016,-0.0024,-0.0041,-0.0025,-0.0059,-0.0061,-0.01,-0.0099,-0.0098,-0.002,0,0,0,0,0,0,0.0132,0.0131,0.0136,0.0111,0.0106,0.0105,0.0078,0.0072,0.0065,0.0062,0.0021,0.0013,-0.0017,-0.0037,-0.0043,-0.0029,-0.0063,-0.01,-0.0099,-0.0098,-0.0024,-0.0017,-0.0012,0,0,0,0,0,0.0133,0.0147,0.0137,0.0136,0.0115,0.0106,0.0101,0.0077,0.0065,0.0069,0.004,0.0015,-0.0036,-0.0038,-0.0046,-0.0032,-0.0101,-0.0099,-0.0098,-0.0026,-0.0018,-0.0012,0,0,0,0,0,0,0.0154,0.0144,0.0133,0.0142,0.0129,0.01,0.0101,0.0085,0.0065,0.0062,0.002,0.0011,0.0,-0.0027,-0.0028,-0.0042,-0.0072,-0.0072,-0.0014,-0.0007,-0.0001,0.0021,-0.0065,0,0,0,0,0,0.0163,0.0171,0.0153,0.0159,0.0156,0.013,0.0123,0.011,0.0088,0.0079,0.005,0.002,-0.0002,-0.0012,-0.004,-0.0045,-0.0078,-0.0041,-0.0035,-0.003,-0.0018,-0.0056,-0.0052,-0.0094,-0.0094,-0.0094,0,0,0.0172,0.0167,0.0171,0.0164,0.0151,0.0161,0.0125,0.0123,0.0132,0.0074,0.0075,0.0039,-0.0,-0.0007,-0.0014,-0.0026,-0.0036,-0.0028,-0.0023,-0.0014,-0.0055,-0.0051,-0.0047,-0.0093,-0.0093,-0.0094,0,0,0.0202,0.0192,0.0211,0.0207,0.0197,0.0185,0.019,0.0168,0.0159,0.0152,0.0114,0.0091,0.0056,0.0035,0.0019,0.0042,-0.0006,0.0032,0.0085,0.0048,0.0051,0.0053,0.0014,0.0013,0.0039,0.0039,0.0039,0,0.0213,0.0234,0.0214,0.0232,0.0237,0.0203,0.0228,0.0215,0.0191,0.0192,0.0163,0.0118,0.0078,0.0078,0.0081,0.0057,0.0026,0.0062,0.0056,0.0058,0.0059,0.0018,0.0016,0.0043,0.0043,0.0042,0.0042,0,0.0258,0.0273,0.0284,0.0298,0.0303,0.0315,0.0303,0.0303,0.0284,0.0269,0.0258,0.0201,0.0177,0.0158,0.0124,0.0122,0.0093,0.0066,0.0041,0.0068,0.0023,0.0019,0.0048,0.0047,0.0046,0.0045,0,0,0.0289,0.0313,0.0316,0.0342,0.034,0.0356,0.0371,0.0381,0.0405,0.0361,0.0382,0.0325,0.0291,0.0271,0.0224,0.0189,0.0159,0.0138,0.0134,0.0106,0.0076,0.0053,0.0046,0.013,0.013,0.013,0.004,0,0.0329,0.0384,0.0381,0.0436,0.0467,0.0449,0.0475,0.0479,0.0466,0.0475,0.0416,0.0413,0.0337,0.033,0.0281,0.0197,0.0152,0.0186,0.0048,0.0044,0.0026,0.0042,0.0072,-0.0005,0.0036,0.0035,0.0034,0,0.0375,0.0409,0.0472,0.0524,0.0536,0.0565,0.0607,0.0627,0.0623,0.0612,0.0586,0.0537,0.0491,0.0417,0.0283,0.0308,0.0199,0.0122,0.0116,0.0068,0.0014,-0.0027,-0.0015,0.0026,0.0027,0.0028,0.0028,0,0.042,0.0474,0.0532,0.0547,0.0596,0.0627,0.0657,0.0672,0.0712,0.0707,0.0731,0.0648,0.0628,0.0484,0.0314,0.0299,0.0157,0.0115,-0.0011,-0.0014,-0.0028,-0.0032,0.0011,0.0011,0.0011,0.0012,0.0012,0,0.0469,0.0515,0.0563,0.0597,0.0686,0.0695,0.0783,0.0795,0.0831,0.0905,0.0814,0.0842,0.0644,0.0537,0.0356,0.0168,0.0184,0.0005,-0.0035,-0.0001,-0.0001,-0.0006,-0.0006,0.0008,0.0009,0.001,0.001,0,0.051,0.0535,0.0612,0.0679,0.0712,0.078,0.0881,0.0942,0.0963,0.1056,0.1066,0.0993,0.0862,0.0645,0.0417,0.0245,0.0051,-0.0027,0.0025,-0.0007,-0.0109,-0.0105,-0.0169,-0.0171,-0.0172,-0.0173,-0.0174,0,0.0536,0.0579,0.0679,0.0742,0.0779,0.088,0.0956,0.1008,0.1083,0.1159,0.1212,0.112,0.1074,0.0725,0.0405,0.0092,0.0047,-0.0093,-0.012,-0.0094,-0.0126,-0.012,-0.0114,-0.0114,-0.0115,-0.0115,-0.0115,0,0.059,0.0622,0.069,0.0819,0.0912,0.103,0.1143,0.1221,0.1304,0.1381,0.1453,0.1424,0.1116,0.0807,0.0379,0.0166,-0.0041,-0.0108,-0.009,-0.0068,-0.0048,-0.0078,-0.0073,-0.0117,-0.0117,-0.0117,-0.0117,-0.0117,0.063,0.0688,0.078,0.0906,0.102,0.1166,0.1274,0.1395,0.1535,0.1658,0.1618,0.1588,0.1241,0.0702,0.0324,-0.0066,-0.0046,-0.0188,-0.0184,-0.0181,-0.0154,-0.0136,-0.0217,-0.0218,-0.0218,-0.0218,-0.0218,0,0.0685,0.0753,0.0864,0.1012,0.1137,0.1205,0.139,0.1498,0.1671,0.177,0.182,0.1502,0.1157,0.0758,0.0182,-0.0164,-0.0188,-0.0273,-0.0227,-0.0221,-0.0217,-0.019,-0.0265,-0.0266,-0.0267,-0.0268,0,0,0.0716,0.082,0.0877,0.1082,0.1197,0.1383,0.1498,0.1663,0.1772,0.1859,0.1847,0.1775,0.1297,0.087,0.0397,0.0067,0.0004,0.0002,0.0078,0.0195,0.0203,-0.0128,-0.0075,0,0,0,0,0]}],[{"header":{"parameterUnit":"m.s-1","parameterCategory":2,"la1":30.2991,"la2":30.254,"lo1":-89.0895,"lo2":-89.0444,"dy":0.0017,"dx":0.0017,"nx":28,"ny":28,"refTime":"2024-05-22T21:00:00:Z","depth":"4","parameterNumber":2,"parameterNumberName":"U-component_of_CURRENTS"},"data":[0,0,0,0,0,0,0,0,0,0,0,0,0,0,0,0,0,0,0,0,0,0,0,0,0,0,0,0,0,0,0,0,0,0,0,0,0,0,0,0,0,0,0,0,0,0,0,0,0,0,0,0,0,0,0,0,0,0,0.1918,0.1919,0,0.1985,0.1986,0.1987,0.2048,0.2049,0.205,0.2051,0.2141,0.2143,0.2144,0,0,0,0,0,0,0,0,0,0,0,0,0,0.1836,0.1837,0.1918,0.1919,0.192,0.1985,0.1986,0.1987,0.2048,0.2049,0.205,0.2051,0.2141,0.2142,0.2144,0,0,0,0,0,0,0,0,0,0,0,0,0,0.1883,0.1838,0.1918,0.1959,0.1964,0.1985,0.1986,0.1987,0.2048,0.2049,0.205,0.2052,0.214,0.2142,0.2145,0.2132,0,0,0.2152,0.2153,0,0,0,0,0,0,0,0,0.188,0.1886,0.1952,0.1957,0.1962,0.2011,0.1991,0.2037,0.2047,0.2014,0.2051,0.2052,0.21,0.2106,0.2113,0.2136,0.214,0.2152,0.2153,0.2154,0.2155,0,0,0,0,0,0,0,0.1877,0.1883,0.1943,0.1953,0.1959,0.1973,0.1981,0.1999,0.2048,0.2017,0.2022,0.2032,0.2103,0.211,0.2115,0.2142,0.2152,0.2154,0.2155,0.2156,0.2289,0.2291,0,0,0,0,0,0,0.1871,0.188,0.1941,0.1945,0.1925,0.1974,0.1982,0.1993,0.2047,0.2057,0.2031,0.2035,0.2105,0.2112,0.2119,0.2221,0.2154,0.2157,0.2158,0.2287,0.2289,0.2291,0,0,0,0,0,0,0.1869,0.1876,0.1938,0.1915,0.1925,0.1974,0.1985,0.1993,0.2043,0.2058,0.2068,0.2077,0.2107,0.2115,0.2173,0.2221,0.2158,0.216,0.2284,0.2287,0.229,0.2354,0,0,0,0,0,0,0.1866,0.1874,0.1899,0.1915,0.1926,0.1977,0.1984,0.1994,0.2045,0.2052,0.21,0.2107,0.2108,0.217,0.2176,0.2223,0.2162,0.2281,0.2286,0.2289,0.2349,0.2359,0.2367,0,0,0,0,0,0.1863,0.1883,0.19,0.1908,0.1952,0.1978,0.1986,0.2023,0.2047,0.2073,0.2109,0.2108,0.2199,0.2173,0.2179,0.2229,0.2279,0.2284,0.2289,0.2345,0.2357,0.2367,0,0,0,0,0,0,0.1861,0.1891,0.191,0.194,0.1972,0.199,0.2023,0.2045,0.2094,0.2115,0.2128,0.2138,0.2208,0.2209,0.218,0.228,0.2242,0.2248,0.2282,0.2293,0.2302,0.2301,0.2164,0,0,0,0,0,0.1871,0.1898,0.1924,0.1955,0.1973,0.2007,0.2031,0.2057,0.2091,0.2116,0.2149,0.2188,0.2224,0.2252,0.228,0.2329,0.2336,0.2368,0.2377,0.2385,0.239,0.2448,0.2463,0.2307,0.2307,0.2307,0,0,0.188,0.1901,0.1919,0.1958,0.1987,0.2015,0.2026,0.2075,0.211,0.2117,0.2191,0.2222,0.2245,0.2305,0.2337,0.2317,0.2433,0.2391,0.2397,0.2398,0.2455,0.247,0.2483,0.231,0.231,0.2309,0,0,0.1895,0.1932,0.1957,0.1985,0.2035,0.2052,0.2075,0.212,0.2159,0.2221,0.2241,0.2302,0.2356,0.2382,0.24,0.2475,0.2478,0.2496,0.2543,0.26,0.2613,0.2624,0.2649,0.2662,0.2501,0.2501,0.2501,0,0.191,0.1939,0.197,0.1998,0.203,0.2072,0.2107,0.2143,0.2205,0.225,0.2259,0.2372,0.239,0.2463,0.2491,0.2495,0.2521,0.2497,0.2611,0.2623,0.2633,0.2656,0.267,0.2505,0.2505,0.2504,0.2504,0,0.1926,0.1969,0.1989,0.2038,0.2076,0.2115,0.2162,0.2223,0.2278,0.2318,0.2423,0.2454,0.2526,0.2543,0.2539,0.2633,0.2623,0.2614,0.258,0.2653,0.2672,0.2685,0.251,0.2509,0.2508,0.2507,0,0,0.1908,0.1986,0.1998,0.2031,0.2105,0.213,0.2209,0.2285,0.2351,0.2426,0.2513,0.2581,0.2624,0.2646,0.2663,0.2706,0.2795,0.27,0.2701,0.2717,0.2915,0.2734,0.273,0.2818,0.2821,0.2823,0.2896,0,0.1918,0.1972,0.2015,0.208,0.2111,0.2187,0.2249,0.2332,0.2412,0.2505,0.2574,0.2658,0.2655,0.2706,0.2755,0.2793,0.2835,0.2776,0.2848,0.2849,0.2674,0.2741,0.2832,0.2905,0.2908,0.2911,0.2912,0,0.1911,0.1953,0.2016,0.2106,0.213,0.2183,0.2309,0.2373,0.2509,0.2578,0.2688,0.2743,0.2843,0.2817,0.2931,0.2902,0.2919,0.2929,0.2933,0.2748,0.2692,0.282,0.2936,0.2934,0.2932,0.2931,0.2929,0,0.1861,0.195,0.2004,0.2034,0.214,0.2206,0.2279,0.2411,0.2483,0.2641,0.2718,0.2838,0.2918,0.2973,0.3016,0.2995,0.3114,0.3083,0.293,0.2917,0.303,0.3016,0.3152,0.3152,0.3152,0.3152,0.3151,0,0.1829,0.1876,0.1993,0.2019,0.2099,0.2191,0.23,0.2394,0.2537,0.2622,0.276,0.2834,0.2967,0.3048,0.306,0.3037,0.3161,0.2944,0.2929,0.3053,0.3042,0.3038,0.3024,0.3154,0.3154,0.3153,0.3153,0,0.1758,0.1834,0.1901,0.203,0.2077,0.214,0.2299,0.2364,0.2523,0.2643,0.2701,0.2873,0.2977,0.307,0.316,0.3076,0.3076,0.3032,0.3161,0.3152,0.2826,0.2815,0.2861,0.2856,0.2851,0.2847,0.2844,0,0.1721,0.175,0.1893,0.1934,0.2001,0.2112,0.2177,0.2341,0.2411,0.2633,0.2667,0.2841,0.2934,0.2922,0.3025,0.3044,0.3005,0.2974,0.2886,0.2818,0.2801,0.2797,0.2792,0.2836,0.2835,0.2833,0.2832,0,0.1648,0.1719,0.1774,0.1861,0.1939,0.2006,0.2121,0.2153,0.2336,0.2506,0.2578,0.2635,0.2746,0.2809,0.2853,0.2853,0.2976,0.2923,0.2931,0.2849,0.2788,0.2774,0.2775,0.2815,0.2818,0.2819,0.282,0,0.1601,0.1618,0.1699,0.176,0.1843,0.1861,0.1944,0.2019,0.2107,0.235,0.2366,0.2549,0.2717,0.271,0.2745,0.2744,0.2693,0.2582,0.2608,0.2627,0.2516,0.2402,0.2305,0,0,0,0,0,0.1537,0.1533,0.1583,0.1626,0.17,0.1748,0.1876,0.1962,0.2144,0.2136,0.2246,0.2335,0.2401,0.2492,0.2444,0.2634,0.2698,0.2564,0.2582,0.2723,0.2742,0.2632,0,0,0,0,0,0,0.1486,0.1527,0.1534,0.1496,0.1501,0.1559,0.1631,0.176,0.1771,0.1974,0.203,0.2184,0.2292,0.241,0.2397,0.2424,0.2383,0.2682,0.2675,0.2712,0.273,0.2745,0.2639,0,0,0,0,0]},{"header":{"parameterUnit":"m.s-1","parameterCategory":2,"la1":30.2991,"la2":30.254,"lo1":-89.0895,"lo2":-89.0444,"dy":0.0017,"dx":0.0017,"nx":28,"ny":28,"refTime":"2024-05-22T21:00:00:Z","depth":"4","parameterNumber":3,"parameterNumberName":"V-component_of_CURRENTS"},"data":[0,0,0,0,0,0,0,0,0,0,0,0,0,0,0,0,0,0,0,0,0,0,0,0,0,0,0,0,0,0,0,0,0,0,0,0,0,0,0,0,0,0,0,0,0,0,0,0,0,0,0,0,0,0,0,0,0,0,0.0075,0.0074,0,0.0041,0.0041,0.004,0.0013,0.0013,0.0013,0.0013,-0.0042,-0.0043,-0.0044,0,0,0,0,0,0,0,0,0,0,0,0,0,0.008,0.0081,0.0075,0.0074,0.0074,0.0041,0.0041,0.004,0.0013,0.0013,0.0013,0.0012,-0.0041,-0.0043,-0.0044,0,0,0,0,0,0,0,0,0,0,0,0,0,0.0065,0.0081,0.0075,0.0057,0.0055,0.0041,0.0041,0.004,0.0013,0.0013,0.0013,0.0012,-0.0041,-0.0043,-0.0045,-0.0051,0,0,-0.005,-0.0051,0,0,0,0,0,0,0,0,0.0066,0.0064,0.006,0.0058,0.0056,0.0032,0.0023,0.0009,0.0013,0.0028,0.0013,0.0012,-0.0018,-0.0022,-0.0029,-0.0054,-0.0056,-0.0051,-0.0052,-0.0053,-0.0053,0,0,0,0,0,0,0,0.0067,0.0065,0.006,0.006,0.0058,0.004,0.0037,0.002,0.0006,0.0027,0.0025,0.0023,-0.002,-0.0027,-0.003,-0.0057,-0.0051,-0.0052,-0.0053,-0.0054,-0.0082,-0.0082,0,0,0,0,0,0,0.0075,0.0067,0.0061,0.0059,0.0062,0.004,0.0037,0.0039,0.0006,0.0001,0.0023,0.0022,-0.0024,-0.0028,-0.0032,-0.0024,-0.0053,-0.0054,-0.0056,-0.0083,-0.0082,-0.0082,0,0,0,0,0,0,0.0076,0.0075,0.0063,0.0063,0.006,0.0041,0.0043,0.0039,0.0035,0.0004,-0.0001,0.0024,-0.0024,-0.003,-0.0042,-0.0027,-0.0055,-0.0057,-0.0083,-0.0082,-0.0082,-0.0019,0,0,0,0,0,0,0.0076,0.0076,0.0081,0.0064,0.006,0.0063,0.0043,0.0038,0.0034,0.0032,0.0003,-0.0003,-0.0025,-0.0038,-0.0043,-0.003,-0.0059,-0.0084,-0.0083,-0.0082,-0.0021,-0.0016,-0.0011,0,0,0,0,0,0.0076,0.0088,0.0081,0.008,0.0068,0.0063,0.006,0.0044,0.0035,0.0038,0.0017,-0.0002,-0.0037,-0.004,-0.0046,-0.0032,-0.0084,-0.0083,-0.0082,-0.0023,-0.0017,-0.0011,0,0,0,0,0,0,0.0091,0.0085,0.0078,0.0086,0.0078,0.0059,0.0061,0.005,0.0036,0.0034,0.0003,-0.0004,-0.001,-0.0031,-0.0032,-0.0039,-0.0064,-0.0064,-0.0017,-0.0011,-0.0006,0.0009,-0.006,0,0,0,0,0,0.0098,0.0105,0.0094,0.01,0.0098,0.008,0.0076,0.0067,0.0053,0.0046,0.0026,0.0004,-0.0011,-0.0018,-0.0038,-0.0039,-0.0071,-0.0036,-0.0031,-0.0026,-0.0018,-0.0057,-0.0055,-0.0079,-0.0079,-0.0079,0,0,0.0105,0.0102,0.0106,0.0103,0.0095,0.0105,0.0077,0.0078,0.0087,0.0043,0.0046,0.0019,-0.0009,-0.0012,-0.0016,-0.0026,-0.0037,-0.0025,-0.0021,-0.0015,-0.0056,-0.0053,-0.0051,-0.0078,-0.0078,-0.0078,0,0,0.0128,0.0122,0.0137,0.0136,0.0131,0.0124,0.0128,0.0114,0.0108,0.0106,0.0077,0.006,0.0037,0.0021,0.001,0.0029,-0.0012,0.0024,0.0065,0.0028,0.003,0.0031,-0.0008,-0.001,0.003,0.003,0.003,0,0.0137,0.0154,0.014,0.0155,0.0162,0.0138,0.0159,0.0152,0.0136,0.0137,0.0116,0.0083,0.0054,0.0055,0.006,0.0042,0.0012,0.0047,0.0035,0.0035,0.0035,-0.0004,-0.0008,0.0033,0.0033,0.0032,0.0032,0,0.0171,0.0186,0.0195,0.0209,0.0215,0.0227,0.0221,0.0222,0.021,0.02,0.0192,0.0149,0.0132,0.0118,0.0094,0.0089,0.0065,0.0043,0.0022,0.0042,-0.0002,-0.0007,0.0038,0.0036,0.0035,0.0035,0,0,0.0191,0.0216,0.0219,0.0241,0.0245,0.0258,0.0275,0.0285,0.0302,0.0274,0.0287,0.0249,0.0222,0.0207,0.0172,0.0139,0.0106,0.0098,0.0094,0.0064,0.0022,0.0008,-0.0,0.0082,0.0081,0.0081,-0.0009,0,0.0223,0.0267,0.0269,0.0317,0.0342,0.0333,0.0356,0.0362,0.0352,0.0356,0.0313,0.0309,0.0259,0.0252,0.0211,0.0135,0.0096,0.0133,0.0004,0.0,-0.0012,-0.0005,0.0079,-0.0013,-0.0014,-0.0015,-0.0016,0,0.0256,0.0285,0.0337,0.0382,0.0393,0.0419,0.0453,0.0472,0.0468,0.0458,0.0439,0.04,0.036,0.0308,0.0191,0.0217,0.0128,0.006,0.0055,0.0017,-0.0024,-0.0038,-0.0026,-0.0025,-0.0025,-0.0024,-0.0023,0,0.0283,0.0333,0.038,0.0394,0.0438,0.0465,0.0493,0.0505,0.0534,0.0527,0.0535,0.0474,0.0449,0.0336,0.0197,0.0192,0.0055,0.0029,-0.0069,-0.0072,-0.006,-0.006,-0.006,-0.006,-0.006,-0.006,-0.006,0,0.0315,0.0354,0.0401,0.0428,0.0498,0.0514,0.058,0.0592,0.0616,0.0659,0.0597,0.0599,0.0453,0.0358,0.0221,0.0065,0.0071,-0.0059,-0.0093,-0.0032,-0.0028,-0.0064,-0.0064,-0.0063,-0.0062,-0.0062,-0.0061,0,0.0335,0.0362,0.0425,0.0485,0.0514,0.0567,0.065,0.0692,0.0707,0.0756,0.076,0.0692,0.057,0.0411,0.0221,0.0105,-0.0051,-0.0113,-0.003,-0.0058,-0.0161,-0.0156,-0.0225,-0.0226,-0.0227,-0.0228,-0.0229,0,0.0347,0.038,0.0468,0.0516,0.0549,0.0631,0.0688,0.0736,0.0782,0.0811,0.0833,0.0742,0.0672,0.0409,0.0224,-0.0033,-0.0077,-0.0163,-0.0167,-0.015,-0.0177,-0.017,-0.0164,-0.023,-0.0231,-0.0231,-0.0231,0,0.0369,0.04,0.0454,0.0553,0.0626,0.0717,0.0801,0.0843,0.0898,0.091,0.0898,0.077,0.0631,0.0418,0.0218,0.003,-0.0108,-0.0175,-0.0174,-0.0179,-0.0158,-0.0182,-0.0174,-0.0235,-0.0234,-0.0234,-0.0234,0,0.0385,0.0424,0.0496,0.0588,0.0681,0.0775,0.0823,0.0881,0.0932,0.0959,0.0949,0.0805,0.0723,0.0449,0.0264,0.0081,0.0025,-0.0046,-0.0053,-0.0052,0.0019,0.0072,0.0041,0,0,0,0,0,0.0399,0.0448,0.0526,0.0629,0.072,0.0785,0.0884,0.0923,0.0973,0.0975,0.097,0.0843,0.0585,0.0472,0.0288,0.0219,-0.0024,-0.0008,-0.0114,-0.0254,-0.025,-0.0198,0,0,0,0,0,0,0.0409,0.048,0.0523,0.0645,0.072,0.0832,0.0901,0.094,0.0943,0.0963,0.0832,0.0781,0.0529,0.0696,0.0282,0.0226,0.0128,-0.0123,-0.0128,-0.0257,-0.0253,-0.025,-0.0195,0,0,0,0,0]}]]